Change the Weather History Date:

Tuesday, September 17, 2013

  Actual Average Record
Temperature  
Mean Temperature 73 °F -  
Max Temperature 84 °F 88 °F 105 °F (1984)
Min Temperature 64 °F 58 °F 49 °F (1947)
Cooling Degree Days 8    
Growing Degree Days 23 (Base 50)    
Moisture  
Dew Point 47 °F    
Average Humidity 41    
Maximum Humidity 65    
Minimum Humidity 13    
Precipitation  
Precipitation 0.00 in - - ()
Sea Level Pressure  
Sea Level Pressure 29.79 in    
Wind  
Wind Speed 8 mph (SW)    
Max Wind Speed 21 mph    
Max Gust Speed 28 mph    
Visibility 10 miles    
Events      
Averages and records for this station are not official NWS values.
T = Trace of Precipitation, MM = Missing Value Source: NWS Daily Summary

Daily Weather History Graph

Daily Weather History Graph

Search for Another Location

Airport or City:

Trip Planner

Search our weather history database for the weather conditions in past years. The results will help you decide how hot, cold, wet, or windy it might be!

Date:

Astronomy

Sep. 17, 2013 Rise Set
Actual Time 6:52 AM PDT 7:13 PM PDT
Civil Twilight 6:24 AM PDT 7:41 PM PDT
Nautical Twilight 5:52 AM PDT 8:12 PM PDT
Astronomical Twilight 5:20 AM PDT 8:45 PM PDT
Moon 6:04 PM PDT (9/17) 4:52 AM PDT (9/17)
Length of Visible Light 13h 16m
Length of Day
12h 21m
Waxing Gibbous, 96% of the Moon is Illuminated
Sep 17
Waxing Gibbous
Sep 19
Full
Sep 26
Last Quarter
Oct 4
New
Oct 11
First Quarter

Hourly Weather History & Observations

Time (PDT) Temp. Dew Point Humidity Pressure Visibility Wind Dir Wind Speed Gust Speed Precip Events Conditions
12:54 AM 72.0 °F 52.0 °F 49% 29.71 in 10.0 mi Calm Calm - N/A   Clear
1:54 AM 73.0 °F 51.1 °F 46% 29.72 in 10.0 mi SW 6.9 mph - N/A   Scattered Clouds
2:54 AM 71.1 °F 53.1 °F 53% 29.72 in 10.0 mi South 11.5 mph - N/A   Clear
3:54 AM 69.1 °F 53.1 °F 57% 29.73 in 10.0 mi SSE 9.2 mph - N/A   Clear
4:54 AM 66.9 °F 52.0 °F 59% 29.74 in 10.0 mi Calm Calm - N/A   Partly Cloudy
5:54 AM 64.9 °F 52.0 °F 63% 29.75 in 10.0 mi South 3.5 mph - N/A   Partly Cloudy
6:54 AM 64.0 °F 52.0 °F 65% 29.78 in 10.0 mi SSW 3.5 mph - N/A   Overcast
7:54 AM 64.9 °F 52.0 °F 63% 29.81 in 10.0 mi SSW 8.1 mph - N/A   Overcast
8:54 AM 64.9 °F 52.0 °F 63% 29.81 in 10.0 mi SSE 15.0 mph 23.0 mph N/A   Overcast
9:54 AM 70.0 °F 51.1 °F 51% 29.81 in 10.0 mi SSE 13.8 mph - N/A   Partly Cloudy
10:54 AM 73.0 °F 50.0 °F 44% 29.81 in 10.0 mi SSE 15.0 mph - N/A   Clear
11:54 AM 73.9 °F 48.0 °F 40% 29.81 in 10.0 mi SSE 5.8 mph - N/A   Clear
12:54 PM 78.1 °F 46.9 °F 33% 29.80 in 10.0 mi ESE 4.6 mph - N/A   Clear
1:54 PM 80.1 °F 46.9 °F 31% 29.78 in 10.0 mi East 3.5 mph - N/A   Clear
2:54 PM 81.0 °F 46.0 °F 29% 29.77 in 10.0 mi South 10.4 mph - N/A   Clear
3:54 PM 84.0 °F 39.9 °F 21% 29.77 in 10.0 mi West 12.7 mph 21.9 mph N/A   Mostly Cloudy
4:54 PM 82.0 °F 39.0 °F 22% 29.77 in 10.0 mi WNW 17.3 mph 25.3 mph N/A   Clear
5:54 PM 80.1 °F 39.0 °F 23% 29.78 in 10.0 mi NW 20.7 mph 27.6 mph N/A   Clear
6:54 PM 75.9 °F 41.0 °F 29% 29.81 in 10.0 mi WNW 17.3 mph 25.3 mph N/A   Clear
7:54 PM 73.0 °F 41.0 °F 31% 29.83 in 10.0 mi NW 13.8 mph 20.7 mph N/A   Clear
8:54 PM 71.1 °F 41.0 °F 34% 29.87 in 10.0 mi NW 11.5 mph - N/A   Clear
9:54 PM 69.1 °F 41.0 °F 36% 29.88 in 10.0 mi NW 8.1 mph - N/A   Clear
10:54 PM 66.9 °F 42.1 °F 40% 29.89 in 10.0 mi NW 10.4 mph - N/A   Clear
11:54 PM 66.9 °F 42.1 °F 40% 29.90 in 10.0 mi NW 11.5 mph - N/A   Clear